Erie, PA

1:30 AM EDT on October 24, 2019 (GMT -0400)
Erie International

Weather History for KERI - August, 2019

Change the Weather History Date:

Monday, August 26, 2019

  Actual Average Record
Temperature  
Mean Temperature 70 °F 70 °F  
Max Temperature 78 °F 78 °F 92 °F (1948)
Min Temperature 61 °F 61 °F 47 °F (1958)
Degree Days  
Heating Degree Days 0 1  
Month to date heating degree days 0 1  
Since 1 June heating degree days 38 69  
Since 1 July heating degree days 0 8  
Cooling Degree Days 4 5  
Month to date cooling degree days 203 160  
Year to date cooling degree days 668 535  
Since 1 June cooling degree days 635 496  
Growing Degree Days 20 (Base 50)    
Moisture  
Dew Point 53 °F    
Average Humidity 58    
Maximum Humidity 72    
Minimum Humidity 43    
Precipitation  
Precipitation T in 0.11 in 1.57 in (1987)
Month to date precipitation 3.41 2.92  
Year to date precipitation 25.91 25.28  
Snow  
Snow 0.00 in 0.00 in - ()
Month to date snowfall 0.0 0.0  
Since 1 June snowfall 0.0 0.0  
Since 1 July snowfall 0.0 0.0  
Snow Depth 0.00 in    
Sea Level Pressure  
Sea Level Pressure 30.08 in    
Wind  
Wind Speed 9 mph ()    
Max Wind Speed 20 mph    
Max Gust Speed 29 mph    
Visibility 10.0 miles    
Events Rain    
T = Trace of Precipitation, MM = Missing Value Source: Averaged Metar Reports

Daily Weather History Graph

Daily Weather History Graph

Search for Another Location

Airport or City:

Astronomy

Aug. 26, 2019 Rise Set
Actual Time 6:39 AM EDT 8:04 PM EDT
Civil Twilight 6:10 AM EDT 8:33 PM EDT
Nautical Twilight 5:35 AM EDT 9:08 PM EDT
Astronomical Twilight 4:58 AM EDT 9:45 PM EDT
Moon 1:59 AM EDT (8/26) 5:30 PM EDT (8/26)
Length of Visible Light 14h 23m
Length of Day
13h 24m
Waning Crescent, 19% of the Moon is Illuminated
Aug 26
Waning Crescent
Aug 30
New
Sep 5
First Quarter
Sep 14
Full
Sep 21
Last Quarter

Hourly Weather History & Observations

Time (EDT) Temp. Dew Point Humidity Pressure Visibility Wind Dir Wind Speed Gust Speed Precip Events Conditions
12:51 AM 62.1 °F 52.0 °F 70% 30.19 in 10.0 mi SE 5.8 mph - N/A   Clear
1:51 AM 62.1 °F 52.0 °F 70% 30.18 in 10.0 mi SE 5.8 mph - N/A   Clear
2:51 AM 62.1 °F 53.1 °F 72% 30.17 in 10.0 mi SE 9.2 mph - N/A   Clear
3:51 AM 62.1 °F 53.1 °F 72% 30.16 in 10.0 mi SE 11.5 mph - N/A   Clear
4:51 AM 61.0 °F 52.0 °F 72% 30.14 in 10.0 mi SE 10.4 mph - N/A   Clear
5:51 AM 61.0 °F 52.0 °F 72% 30.14 in 10.0 mi SE 11.5 mph - N/A   Clear
6:51 AM 61.0 °F 52.0 °F 72% 30.16 in 10.0 mi SE 11.5 mph - N/A   Clear
7:51 AM 62.1 °F 52.0 °F 70% 30.17 in 10.0 mi SSE 11.5 mph - N/A   Clear
8:51 AM 64.9 °F 54.0 °F 68% 30.16 in 10.0 mi SE 13.8 mph - N/A   Clear
9:51 AM 69.1 °F 55.0 °F 61% 30.14 in 10.0 mi SE 15.0 mph 21.9 mph N/A   Clear
10:51 AM 72.0 °F 54.0 °F 53% 30.12 in 10.0 mi SSE 17.3 mph 25.3 mph N/A   Clear
11:51 AM 75.0 °F 54.0 °F 48% 30.10 in 10.0 mi SE 16.1 mph - N/A   Clear
12:51 PM 75.0 °F 53.1 °F 46% 30.09 in 10.0 mi SSE 15.0 mph 21.9 mph N/A   Partly Cloudy
1:51 PM 75.0 °F 52.0 °F 44% 30.06 in 10.0 mi SE 8.1 mph 20.7 mph N/A   Partly Cloudy
2:51 PM 77.0 °F 53.1 °F 43% 30.04 in 10.0 mi SSE 11.5 mph 19.6 mph N/A   Partly Cloudy
3:51 PM 77.0 °F 54.0 °F 45% 30.02 in 10.0 mi SSE 17.3 mph - N/A   Scattered Clouds
4:51 PM 75.0 °F 53.1 °F 46% 30.02 in 10.0 mi SSE 9.2 mph - N/A   Partly Cloudy
5:51 PM 73.9 °F 53.1 °F 48% 30.02 in 10.0 mi SSE 6.9 mph - N/A   Mostly Cloudy
6:51 PM 72.0 °F 53.1 °F 51% 30.01 in 10.0 mi SSE 11.5 mph - N/A   Clear
7:51 PM 71.1 °F 53.1 °F 53% 30.00 in 10.0 mi SE 8.1 mph - N/A   Clear
8:51 PM 70.0 °F 54.0 °F 57% 29.99 in 10.0 mi SE 5.8 mph - N/A   Clear
9:51 PM 70.0 °F 54.0 °F 57% 29.97 in 10.0 mi SSE 11.5 mph - N/A   Clear
10:51 PM 71.1 °F 53.1 °F 53% 29.95 in 10.0 mi SSE 13.8 mph 20.7 mph N/A   Overcast
11:51 PM 69.1 °F 55.0 °F 61% 29.94 in 10.0 mi SSE 15.0 mph 23.0 mph 0.00 in Rain Light Rain